Simultaneous Nadir Overpasses (SNOs) Predictions

Prediction of SNOs between METOP-B and TERRA Satellite Orbit:

Table of predicted SNOs for the next 14.0 days since TLE Epoch: 11/1/2014
Index Date (METOP-B) Time (METOP-B) Lat,Lon (METOP-B) SZA (METOP-B ) Date (TERRA) Time (TERRA) Lat,Lon (TERRA) SZA (TERRA ) Distance(km) Time Diff (sec)
1 11/02/2014 08:25:44 81.26, 100.11 99.10 11/02/2014 08:26:06 81.26, 99.98 99.10 2.12 22
2 11/02/2014 09:16:24 -81.27, -92.37 80.87 11/02/2014 09:15:33 -81.26, -92.44 80.91 1.37 51
3 11/05/2014 04:00:11 81.26, 166.35 99.95 11/05/2014 04:00:20 81.26, 166.27 99.94 1.47 9
4 11/05/2014 04:50:50 -81.27, -25.70 79.97 11/05/2014 04:49:46 -81.28, -25.74 80.00 0.78 64
5 11/07/2014 22:43:56 -81.26, 65.20 79.26 11/07/2014 22:45:07 -81.27, 65.28 79.21 1.72 71
6 11/
